カタログに戻る

ELECTRON KICK STAGE R/B

運用中PO
NORAD 64692·ROCKET BODY·🇺🇸 United States

打ち上げ Jun 28, 2025 から Rocket Lab Launch Complex 1

Loading…

次のパス (今後24時間)

TLE

最新Source: Space-Track

元期: Sep 14, 2026, 05:47 UTC

1 64692U 25140B   26257.24121299  .00001064  00000-0  16696-3 0  9993
2 64692  96.0116 355.0241 0012137 255.4266 104.5601 14.73836193 65201

AllMySatでELECTRON KICK STAGE R/Bをリアルタイム追跡

Download on the App Store